Location: Burnham Point
(41.7136°N, 88.1933°W)
Time: 23:12:10
(UTC+00:00)

Daily predictions for brighter satellites

Satellite Brightness Start Highest point End
(mag) Time Altitude Azimuth Time Altitude Azimuth Time Altitude Azimuth
YAOGAN 6 2.8 12:00:09 10° N 12:03:34 45° WNW 12:06:56 10° SSW
Cosmos 1689 Rocket 2.3 12:05:17 10° S 12:07:59 42° W 12:10:41 10° NNW
H-2A R/B 3.4 12:04:33 10° NNE 12:08:39 53° E 12:12:35 10° S
ATLAS CENTAUR R/B 1.8 12:05:05 10° NW 12:08:57 44° WSW 12:13:03 10° S
Cosmos 1709 Rocket 4.4 12:05:01 10° NNW 12:10:59 45° W 12:16:58 10° SSW
Lacrosse 5 3.9 12:07:54 10° NNW 12:11:41 20° NNE 12:15:27 10° ENE
